Location: Austin
(30.3000°N, 97.7500°W)
Time: 23:27:09
(UTC-05:00)

GEOS 3 Rocket - Pass Details

Date: 06 May 2026
Orbit: 767 x 846 km, 115.0° (Epoch: 13 May)

Event Time Altitude Azimuth Distance (km) Brightness Sun altitude
Exits shadow 20:52:27 10° 129° (SE) 2,412 5.4 -8.8°
Reaches altitude 10° 20:52:29 10° 129° (SE) 2,403 5.4 -8.8°
Maximum altitude 20:57:32 51° 54° (NE) 1,031 4.0 -9.8°
Drops below altitude 10° 21:02:41 10° 340° (NNW) 2,453 6.8 -10.8°
Sets 21:05:05 0° 335° (NNW) 3,397 7.8 -11.3°
